Weather History for Rochester, NH

Change the Weather History Date:

Saturday, November 2, 2013

  Actual Average (KSFM) Record (KSFM)
Temperature  
Mean Temperature 53 °F -  
Max Temperature 64 °F 50 °F 69 °F (2001)
Min Temperature 43 °F 31 °F 17 °F (2008)
Degree Days  
Heating Degree Days 12    
Growing Degree Days 3 (Base 50)    
Moisture  
Dew Point 41 °F    
Average Humidity 63    
Maximum Humidity 89    
Minimum Humidity 40    
Precipitation  
Precipitation 0.03 in - - ()
Sea Level Pressure  
Sea Level Pressure 29.64 in    
Wind  
Wind Speed 3 mph (WNW)    
Max Wind Speed 10 mph    
Max Gust Speed -    
Visibility 10 miles    
Events Rain    
Averages and records for this station are not official NWS values.
T = Trace of Precipitation, MM = Missing Value Source: NWS Daily Summary

Daily Weather History Graph

Daily Weather History Graph

Search for Another Location

Airport:

Trip Planner

Search our weather history database for the weather conditions in past years. The results will help you decide how hot, cold, wet, or windy it might be!

Date:

Astronomy

Nov. 02, 2013 Rise Set
Actual Time 7:20 AM EDT 5:33 PM EDT
Civil Twilight 6:50 AM EDT 6:03 PM EDT
Nautical Twilight 6:16 AM EDT 6:37 PM EDT
Astronomical Twilight 5:43 AM EDT 7:10 PM EDT
Moon 6:12 AM EDT (11/2) 5:03 PM EDT (11/2)
Length of Visible Light 11h 12m
Length of Day
10h 13m
Waning Crescent, 1% of the Moon is Illuminated
Nov 2
Waning Crescent
Nov 3
New
Nov 10
First Quarter
Nov 17
Full
Nov 25
Last Quarter

Hourly Weather History & Observations

Time (EDT) Temp. Dew Point Humidity Pressure Visibility Wind Dir Wind Speed Gust Speed Precip Events Conditions
12:51 AM 55.9 °F 43.0 °F 62% 29.60 in 10.0 mi Variable 4.6 mph - N/A   Clear
1:51 AM 55.0 °F 41.0 °F 59% 29.62 in 10.0 mi Calm Calm - N/A   Clear
2:51 AM 52.0 °F 41.0 °F 66% 29.60 in 10.0 mi Calm Calm - N/A   Clear
3:51 AM 48.0 °F 41.0 °F 77% 29.62 in 10.0 mi Calm Calm - N/A   Clear
4:51 AM 50.0 °F 41.0 °F 71% 29.63 in 10.0 mi WSW 3.5 mph - N/A   Clear
5:51 AM 48.0 °F 41.0 °F 77% 29.65 in 10.0 mi Variable 3.5 mph - N/A   Clear
6:51 AM 46.0 °F 39.9 °F 79% 29.64 in 10.0 mi Calm Calm - N/A   Clear
7:51 AM 43.0 °F 39.9 °F 89% 29.66 in 10.0 mi Calm Calm - N/A   Overcast
8:51 AM 52.0 °F 41.0 °F 66% 29.67 in 10.0 mi Variable 3.5 mph - N/A   Mostly Cloudy
9:51 AM 55.0 °F 41.0 °F 59% 29.65 in 10.0 mi Variable 3.5 mph - N/A   Overcast
10:51 AM 57.9 °F 42.1 °F 56% 29.64 in 10.0 mi Variable 6.9 mph - N/A   Partly Cloudy
11:51 AM 60.1 °F 41.0 °F 49% 29.63 in 10.0 mi Variable 5.8 mph - N/A   Clear
12:51 PM 61.0 °F 39.9 °F 46% 29.60 in 10.0 mi SW 3.5 mph - N/A   Clear
1:51 PM 62.1 °F 39.0 °F 43% 29.58 in 10.0 mi WSW 5.8 mph - N/A   Clear
2:51 PM 63.0 °F 37.9 °F 40% 29.59 in 10.0 mi Variable 5.8 mph - N/A   Clear
3:51 PM 63.0 °F 37.9 °F 40% 29.59 in 10.0 mi Calm Calm - N/A   Clear
4:51 PM 61.0 °F 39.0 °F 44% 29.61 in 10.0 mi Calm Calm - N/A   Scattered Clouds
5:51 PM 57.9 °F 39.9 °F 51% 29.61 in 10.0 mi Calm Calm - N/A   Overcast
6:51 PM 55.0 °F 41.0 °F 59% 29.62 in 10.0 mi NW 4.6 mph - N/A   Overcast
7:51 PM 54.0 °F 42.1 °F 64% 29.65 in 10.0 mi Calm Calm - N/A   Overcast
8:51 PM 53.1 °F 45.0 °F 74% 29.69 in 8.0 mi WNW 4.6 mph - 0.02 in Rain Light Rain
9:51 PM 52.0 °F 45.0 °F 77% 29.70 in 10.0 mi WNW 8.1 mph - 0.01 in   Overcast
10:51 PM 48.9 °F 45.0 °F 86% 29.70 in 10.0 mi NNW 6.9 mph - N/A   Mostly Cloudy
11:51 PM 48.0 °F 45.0 °F 89% 29.71 in 10.0 mi NNW 10.4 mph - N/A   Overcast